Regional Weather Roundup
Issued by NWS Nashville, TN

Home | Current Version | Previous Version | Text Only | Print | Product List | Glossary On
Versions: 1 2 3 4 5 6 7 8 9 10 11 12 13 14 15 16 17 18 19 20 21 22 23 24 25 26 27 28 29 30 31 32 33 34 35 36 37 38 39 40 41 42 43 44 45 46 47 48 49 50
000
ASUS44 KOHX 010310
RWROHX
MIDDLE TENNESSEE HOURLY WEATHER ROUNDUP
NATIONAL WEATHER SERVICE NASHVILLE TN
1000 PM CDT FRI JUL 31 2015

NOTE: "FAIR" INDICATES FEW OR NO CLOUDS BELOW 12,000 FEET WITH
NO SIGNIFICANT WEATHER AND/OR OBSTRUCTIONS TO VISIBILITY.

* THESE REPORTS ARE NOT UNDER NWS QUALITY CONTROL AND MAY NOT
  REPORT WEATHER SUCH AS PRECIPITATION AND FOG.


TNZ005>011-023>034-057-059-062>066-078-080-010400
...NORTHERN MIDDLE TENNESSEE...

CITY           SKY/WX    TMP DP  RH WIND       PRES   REMARKS
CLARKSVILLE    CLEAR     73  68  84 CALM      30.04R
CROSSVILLE     CLEAR     71  59  65 N3        30.10R
DICKSON        CLEAR     72  66  83 CALM      30.06R
LIVINGSTON     CLEAR     74  58  57 CALM      30.08R
NASHVILLE      PTCLDY    79  61  53 N3        30.05R
ROCKWOOD       CLOUDY    67  61  81 N5        30.09
SMYRNA         CLEAR     72  66  81 CALM      30.05R
$$
TNZ056-058-060-061-075>077-079-093>097-010400
...SOUTHERN MIDDLE TENNESSEE...

CITY           SKY/WX    TMP DP  RH WIND       PRES   REMARKS
COLUMBIA       CLEAR     72  64  78 CALM      30.04R
MCMINNVILLE    CLEAR     68  66  94 CALM      30.06R
SHELBYVILLE    CLEAR     72  64  78 CALM      30.05S
TULLAHOMA      CLEAR     66  61  82 CALM      30.06S
WINCHESTER     CLEAR     64  61  88 CALM      30.05R
$$


...KEY TO REMARKS...
VSB - VISIBILITY IN MILES
WCI - WIND CHILL INDEX
HX  - HEAT INDEX



USA.gov is the U.S. government's official web portal to all federal, state and local government web resources and services.